Torna al catalogo

NOAA 16 DEB

AttivoPO
NORAD 41133·DEBRIS·🇺🇸 United States

Lanciato Sep 21, 2000 da Vandenberg Space Force Base

Loading…

Prossimi Passaggi (prossime 24 ore)

TLE

AggiornatoSource: Space-Track

Epoca: Sep 14, 2026, 11:29 UTC

1 41133U 00055BQ  26257.47871882  .00014585  00000-0  23801-2 0  9998
2 41133  98.9244  83.5792 0012129  29.4443 330.7442 14.70990630559590

Traccia NOAA 16 DEB in tempo reale con AllMySat

Download on the App Store